Loyall, KY

11:16 AM EST on January 23, 2017 (GMT -0500)
Harlan

Weather History for KI35 - January, 2013

Change the Weather History Date:

Tuesday, January 15, 2013

  Actual Average (KLOZ) Record (KLOZ)
Temperature  
Mean Temperature 35 °F -  
Max Temperature 37 °F 41 °F 67 °F (2007)
Min Temperature 33 °F 23 °F -2 °F (1972)
Degree Days  
Heating Degree Days 30    
Moisture  
Dew Point 34 °F    
Average Humidity 94    
Maximum Humidity 100    
Minimum Humidity 87    
Precipitation  
Precipitation 0.00 in - - ()
Sea Level Pressure  
Sea Level Pressure 30.11 in    
Wind  
Wind Speed 2 mph (ENE)    
Max Wind Speed 9 mph    
Max Gust Speed -    
Visibility 7 miles    
Events      
Averages and records for this station are not official NWS values.
T = Trace of Precipitation, MM = Missing Value Source: NWS Daily Summary

Daily Weather History Graph

Daily Weather History Graph

Search for Another Location

Airport or City:

Trip Planner

Search our weather history database for the weather conditions in past years. The results will help you decide how hot, cold, wet, or windy it might be!

Date:

Astronomy

Jan. 15, 2013 Rise Set
Actual Time 7:45 AM EST 5:40 PM EST
Civil Twilight 7:17 AM EST 6:09 PM EST
Nautical Twilight 6:45 AM EST 6:41 PM EST
Astronomical Twilight 6:14 AM EST 7:12 PM EST
Moon 9:58 AM EST (1/15) 10:21 PM EST (1/15)
Length of Visible Light 10h 52m
Length of Day
9h 55m
Waxing Crescent, 19% of the Moon is Illuminated
Jan 15
Waxing Crescent
Jan 18
First Quarter
Jan 26
Full
Feb 3
Last Quarter
Feb 10
New

Hourly Weather History & Observations

Time (EST) Temp. Windchill Dew Point Humidity Pressure Visibility Wind Dir Wind Speed Gust Speed Precip Events Conditions
12:15 AM 37.4 °F - 35.6 °F 93% 30.17 in 10.0 mi Calm Calm - N/A   Overcast
12:35 AM 37.4 °F - 35.6 °F 93% 30.17 in 10.0 mi Calm Calm - N/A   Overcast
12:55 AM 37.4 °F - 35.6 °F 93% 30.16 in 7.0 mi Calm Calm - N/A   Overcast
1:15 AM 37.4 °F - 35.6 °F 93% 30.16 in 10.0 mi Calm Calm - N/A   Overcast
1:35 AM 35.6 °F - 33.8 °F 93% 30.16 in 10.0 mi Calm Calm - N/A   Overcast
1:55 AM 35.6 °F 32.8 °F 33.8 °F 93% 30.16 in 10.0 mi North 3.5 mph - N/A   Overcast
2:15 AM 35.6 °F - 33.8 °F 93% 30.16 in 10.0 mi Calm Calm - N/A   Overcast
2:35 AM 35.6 °F - 33.8 °F 93% 30.15 in 10.0 mi Calm Calm - N/A   Overcast
2:55 AM 35.6 °F 32.8 °F 33.8 °F 93% 30.15 in 10.0 mi NNW 3.5 mph - N/A   Overcast
3:15 AM 33.8 °F 30.8 °F 33.8 °F 100% 30.16 in 10.0 mi North 3.5 mph - N/A   Overcast
3:35 AM 33.8 °F 30.8 °F 33.8 °F 100% 30.17 in 10.0 mi NNW 3.5 mph - N/A   Overcast
4:15 AM 33.8 °F 27.0 °F 33.8 °F 100% 30.15 in 10.0 mi East 8.1 mph - N/A   Overcast
4:35 AM 33.8 °F - 33.8 °F 100% 30.16 in 10.0 mi Calm Calm - N/A   Overcast
4:55 AM 35.6 °F - 33.8 °F 93% 30.16 in 10.0 mi Calm Calm - N/A   Overcast
5:15 AM 35.6 °F - 33.8 °F 93% 30.17 in 10.0 mi Calm Calm - N/A   Overcast
5:55 AM 33.8 °F 29.6 °F 32.0 °F 93% 30.17 in 10.0 mi East 4.6 mph - N/A   Overcast
6:15 AM 35.6 °F 29.2 °F 32.0 °F 87% 30.17 in 10.0 mi East 8.1 mph - N/A   Overcast
6:35 AM 35.6 °F - 32.0 °F 87% 30.20 in 10.0 mi Calm Calm - N/A   Overcast
6:55 AM 33.8 °F 29.6 °F 32.0 °F 93% 30.18 in 10.0 mi North 4.6 mph - N/A   Overcast
7:15 AM 35.6 °F - 32.0 °F 87% 30.21 in 10.0 mi Calm Calm - N/A   Overcast
7:35 AM 33.8 °F - 32.0 °F 93% 30.20 in 7.0 mi Calm Calm - N/A   Overcast
7:55 AM 33.8 °F - 32.0 °F 93% 30.21 in 7.0 mi Calm Calm - N/A   Overcast
8:15 AM 35.6 °F 29.2 °F 32.0 °F 87% 30.20 in 10.0 mi NNE 8.1 mph - N/A   Overcast
8:35 AM 35.6 °F - 32.0 °F 87% 30.23 in 10.0 mi Calm Calm - N/A   Overcast
8:55 AM 35.6 °F - 32.0 °F 87% 30.23 in 10.0 mi Calm Calm - N/A   Overcast
9:15 AM 33.8 °F 28.6 °F 32.0 °F 93% 30.23 in 10.0 mi NNE 5.8 mph - N/A   Overcast
9:35 AM 35.6 °F - 32.0 °F 87% 30.23 in 10.0 mi Calm Calm - N/A   Overcast
9:55 AM 35.6 °F 32.8 °F 32.0 °F 87% 30.23 in 10.0 mi North 3.5 mph - N/A   Overcast
10:15 AM 33.8 °F 30.8 °F 32.0 °F 93% 30.21 in 10.0 mi NE 3.5 mph - N/A   Overcast
10:35 AM 35.6 °F 29.9 °F 32.0 °F 87% 30.21 in 10.0 mi East 6.9 mph - N/A   Overcast
10:55 AM 33.8 °F 27.0 °F 32.0 °F 93% 30.17 in 5.0 mi East 8.1 mph - N/A   Overcast
11:15 AM 33.8 °F 30.8 °F 33.8 °F 100% 30.15 in 5.0 mi ENE 3.5 mph - N/A   Overcast
11:35 AM 35.6 °F 31.7 °F 33.8 °F 93% 30.14 in 5.0 mi East 4.6 mph - N/A   Overcast
11:55 AM 35.6 °F - 33.8 °F 93% 30.15 in 3.0 mi Calm Calm - N/A   Overcast
12:15 PM 35.6 °F 29.9 °F 33.8 °F 93% 30.13 in 3.0 mi ESE 6.9 mph - N/A   Overcast
12:35 PM 35.6 °F 32.8 °F 33.8 °F 93% 30.12 in 7.0 mi East 3.5 mph - N/A   Overcast
12:55 PM 35.6 °F 31.7 °F 33.8 °F 93% 30.09 in 10.0 mi East 4.6 mph - N/A   Overcast
1:15 PM 35.6 °F 31.7 °F 33.8 °F 93% 30.08 in 7.0 mi East 4.6 mph - N/A   Overcast
1:35 PM 35.6 °F 30.7 °F 33.8 °F 93% 30.07 in 10.0 mi East 5.8 mph - N/A   Overcast
1:55 PM 37.4 °F - 35.6 °F 93% 30.08 in 3.0 mi Calm Calm - N/A   Overcast
2:15 PM 35.6 °F - 33.8 °F 93% 30.08 in 4.0 mi Calm Calm - N/A   Overcast
2:35 PM 35.6 °F 32.8 °F 35.6 °F 100% 30.06 in 1.8 mi East 3.5 mph - N/A   Overcast
2:55 PM 35.6 °F 30.7 °F 33.8 °F 93% 30.05 in 7.0 mi East 5.8 mph - N/A   Overcast
3:15 PM 35.6 °F 29.2 °F 33.8 °F 93% 30.02 in 5.0 mi East 8.1 mph - N/A   Overcast
3:35 PM 35.6 °F 32.8 °F 33.8 °F 93% 30.02 in 10.0 mi East 3.5 mph - N/A   Overcast
3:55 PM 35.6 °F - 35.6 °F 100% 30.04 in 10.0 mi Calm Calm - N/A   Overcast
4:15 PM 35.6 °F - 35.6 °F 100% 30.05 in 4.0 mi Calm Calm - N/A   Overcast
4:35 PM 35.6 °F - 35.6 °F 100% 30.05 in 0.8 mi Calm Calm - N/A   Overcast
5:15 PM 35.6 °F - 33.8 °F 93% 30.05 in 2.5 mi Calm Calm - N/A   Overcast
5:35 PM 35.6 °F - 35.6 °F 100% 30.05 in 1.0 mi Calm Calm - N/A   Overcast
5:55 PM 35.6 °F - 35.6 °F 100% 30.06 in 4.0 mi Calm Calm - N/A   Overcast
6:15 PM 35.6 °F - 33.8 °F 93% 30.05 in 1.8 mi Calm Calm - N/A   Overcast
6:35 PM 35.6 °F - 35.6 °F 100% 30.05 in 4.0 mi Calm Calm - N/A   Overcast
6:55 PM 35.6 °F 32.8 °F 33.8 °F 93% 30.06 in 4.0 mi WSW 3.5 mph - N/A   Overcast
7:15 PM 35.6 °F - 33.8 °F 93% 30.05 in 3.0 mi Calm Calm - N/A   Overcast
7:35 PM 35.6 °F - 32.0 °F 87% 30.07 in 2.5 mi Calm Calm - N/A   Overcast
7:55 PM 33.8 °F 29.6 °F 32.0 °F 93% 30.06 in 2.0 mi North 4.6 mph - N/A   Overcast
8:15 PM 33.8 °F - 33.8 °F 100% 30.03 in 4.0 mi Calm Calm - N/A   Overcast
8:35 PM 33.8 °F - 33.8 °F 100% 30.03 in 2.5 mi Calm Calm - N/A   Overcast
8:55 PM 33.8 °F 28.6 °F 33.8 °F 100% 30.02 in 4.0 mi ESE 5.8 mph - N/A   Overcast
9:15 PM 33.8 °F - 33.8 °F 100% 30.02 in 3.0 mi Calm Calm - N/A   Overcast
9:35 PM 33.8 °F - 33.8 °F 100% 30.02 in 2.5 mi Calm Calm - N/A   Overcast
9:55 PM 33.8 °F - 33.8 °F 100% 30.02 in 4.0 mi Calm Calm - N/A   Overcast
10:15 PM 33.8 °F 29.6 °F 33.8 °F 100% 30.02 in 1.2 mi SE 4.6 mph - N/A   Overcast
10:35 PM 33.8 °F 29.6 °F 33.8 °F 100% 30.01 in 2.5 mi East 4.6 mph - N/A   Overcast
10:55 PM 33.8 °F 30.8 °F 33.8 °F 100% 30.00 in 4.0 mi East 3.5 mph - N/A   Overcast
11:15 PM 33.8 °F 29.6 °F 33.8 °F 100% 30.01 in 10.0 mi East 4.6 mph - N/A   Overcast
11:35 PM 35.6 °F 28.6 °F 33.8 °F 93% 29.98 in 7.0 mi East 9.2 mph - N/A   Overcast
11:55 PM 35.6 °F 32.8 °F 33.8 °F 93% 29.98 in 10.0 mi ENE 3.5 mph - N/A   Overcast